Location: Newark
(35.7219°N, 0.3536°E)
Time: 12:23:02
(UTC+00:00)

ISS - Pass Details

Date: 30 July 2019
Orbit: 410 x 420 km, 51.6° (Epoch: 21 August)

Event Time Altitude Azimuth Distance (km) Brightness Sun altitude
Rises 22:15:14 0° 316° (NW) 2,365 1.2 -30.0°
Reaches altitude 10° 22:17:24 10° 322° (NW) 1,497 -0.1 -30.2°
Enters shadow 22:18:00 14° 325° (NW) 1,260 -0.5 -30.2°
